User: anonymous   Login
Location: Izdebno
(52.6670°N, 16.2170°E)
Time: 11:31:58
(UTC+01:00)
Language:

Explorer 7 - Orbit

View from above orbital plane
View from above orbital plane
View from above satellite
View from above satellite

Ground track
Ground track

The orbit data is extracted from the following two-line orbital elements,

1 00022U 59009A   24053.86649559  .00006814  00000-0  42518-3 0  9995
2 00022  50.2772 243.3514 0116644  20.6574 339.9037 15.05095380672024
Epoch (UTC): 22 February 2024 20:47:45
Eccentricity: 0.0116644
inclination: 50.2772°
perigee height: 470 km
apogee height: 632 km
right ascension of ascending node: 243.3514°
argument of perigee: 20.6574°
revolutions per day: 15.05095380
mean anomaly at epoch: 339.9037°
orbit number at epoch: 67202

The dashed part of the orbit path shows where the satellite is in the earth's shadow,  

DLR